Location: Fontevrault
(47.1823°N, 0.0493°E)
Time: 08:14:58
(UTC+00:00)

USA 215 - Pass Details

Date: 16 June 2021
Orbit: 1100 x 1107 km, 123.0° (Epoch: 01 August)

Event Time Altitude Azimuth Distance (km) Brightness Sun altitude
Rises 21:37:01 0° 56° (NE) 3,923 6.2 -12.4°
Reaches altitude 10° 21:39:44 10° 64° (ENE) 2,962 5.5 -12.6°
Maximum altitude 21:45:44 38° 131° (SE) 1,626 3.7 -13.2°
Drops below altitude 10° 21:51:42 10° 197° (SSW) 2,950 5.1 -13.7°
Sets 21:54:23 0° 205° (SSW) 3,905 5.8 -13.9°
